Regional Weather Roundup
Issued by NWS Goodland, KS

Home | Current Version | Previous Version | Graphics & Text | Print | Product List | Glossary On
Versions: 1 2 3 4 5 6 7 8 9 10 11 12 13 14 15 16 17 18 19 20 21 22 23 24 25 26 27 28 29 30 31 32 33 34 35 36 37 38 39 40 41 42 43 44 45 46 47 48 49 50
000
ASUS43 KGLD 180959
RWRGLD

GOODLAND FORECAST AREA HOURLY WEATHER ROUNDUP
NATIONAL WEATHER SERVICE GOODLAND KS
400 AM MDT FRI APR 18 2014

...OFFICIAL OBSERVATIONS...

CITY           SKY/WX    TMP DP  RH WIND       PRES   REMARKS
GOODLAND KS    CLEAR     36  33  89 S17       30.09F
HILL CITY KS   CLEAR     38  35  89 VRB3      30.18S
IMPERIAL NEB   CLEAR     40  35  83 S14       30.05F
MCCOOK NEB     CLEAR     38  36  92 S9        30.13S FOG
AKRON CO       CLEAR     38  33  82 S10       30.00S
BURLINGTON CO  CLEAR     38  33  82 S22       30.07F
LIMON CO       CLEAR     29  29 100 SE6       30.07F
$$

...UNOFFICIAL OBSERVATIONS...

CITY           SKY/WX    TMP DP  RH WIND       PRES   REMARKS
COLBY KS       CLEAR     37  37 100 S13       30.13S
LENORA KS        N/A     38  32  79 S8          N/A
LEOTI KS         N/A     37  32  83 S7          N/A
NORTON KS      CLEAR     36  34  93 S8        30.15S
SHARON SPRINGS   N/A     34  30  86 S12         N/A
WAKEENEY KS      N/A     40  36  87 MISG        N/A
TRENTON NEB      N/A     37  32  82 S10         N/A
KIT CARSON CO    N/A     32  29  90 MISG        N/A
$$



USA.gov is the U.S. government's official web portal to all federal, state and local government web resources and services.